Content
SEND FEEDBACK

Daily
Averages
Monthly
Summary
United States of America

BULLHEAD CITY, ARIZONA


Home > North America > United States > Arizona
Elevation: 580 feet     Latitude: 35 07N     Longitude: 114 36W

WEATHER
 
SELECT A DAY
Number of Records: 181,463;   Date Range: 7/1/96 - 7/26/14
 
SHARE

PRINT THIS DATA

[ ← Previous Day ]
WEATHER ALMANAC - FEBRUARY 1, 2013
[ Next Day → ]
[ °C ]   °F
Weather ElementAverageHighLow
Temperature57.6 °F69.8 °F (3:15 pm)44.6 °F (5:15 am)
Dewpoint33.9 °F37.4 °F (11:55 pm)32 °F (9:55 am)
Humidity43.6 %71 % (5:15 am)25 % (3:15 pm)
Barometer30.20 in30.25 in (9:15 am)30.14 in (4:35 pm)
Wind Speed9 mph25.3 mph (11:35 am)
Wind Gust31.1 mph (11:35 am)
Weather ElementAverage
Visibility10 mi
Wind DirectionSSE (155.6 °)

Weather ElementTotal
Precipitation---
Heating Degree Days7.8 (Base 65)
Growing Degree Days7.2 (Base 50)
Averaged from 68 records on February 1, 2013
WEATHER CONDITIONS BREAKOUT
WIND DIRECTION BREAKOUT
WEATHER BY HOUR - FEBRUARY 1, 2013
[ °C ]   °F
Local TimeTemperatureDewpointHumidityBarometerVisibilityWind DirectionWind SpeedGust SpeedPrecipitationEventsConditions
12:35 AM53.6 °F35.6 °F51 %30.18 in10.0 miNNE (20°)6.9 mphClear
12:55 AM53.6 °F35.6 °F51 %30.18 in10.0 miNorth (10°)6.9 mphClear
1:15 AM53.6 °F35.6 °F51 %30.19 in10.0 miNE (40°)3.5 mphClear
1:35 AM53.6 °F35.6 °F51 %30.18 in10.0 miNorth (360°)6.9 mphClear
1:55 AM50.0 °F35.6 °F58 %30.18 in10.0 miNNE (30°)3.5 mphClear
2:15 AM51.8 °F35.6 °F54 %30.19 in10.0 miCalmClear
2:35 AM48.2 °F35.6 °F62 %30.19 in10.0 miCalmClear
3:15 AM48.2 °F35.6 °F62 %30.20 in10.0 miSouth (180°)3.5 mphClear
3:35 AM48.2 °F35.6 °F62 %30.20 in10.0 miSouth (180°)4.6 mphClear
3:55 AM48.2 °F35.6 °F62 %30.20 in10.0 miSouth (190°)4.6 mphClear
4:15 AM48.2 °F33.8 °F58 %30.20 in10.0 miSSW (200°)3.5 mphClear
4:35 AM46.4 °F35.6 °F66 %30.20 in10.0 miSSE (150°)3.5 mphClear
5:15 AM44.6 °F35.6 °F71 %30.20 in10.0 miCalmClear
5:35 AM46.4 °F35.6 °F66 %30.19 in10.0 miCalmClear
5:55 AM46.4 °F33.8 °F62 %30.19 in10.0 miCalmClear
6:15 AM50.0 °F33.8 °F54 %30.19 in10.0 miNNE (20°)3.5 mphClear
6:35 AM50.0 °F33.8 °F54 %30.20 in10.0 miCalmClear
6:55 AM46.4 °F35.6 °F66 %30.20 in10.0 miCalmClear
7:15 AM48.2 °F35.6 °F62 %30.21 in10.0 miCalmClear
7:35 AM46.4 °F35.6 °F66 %30.22 in10.0 miCalmClear
7:55 AM48.2 °F35.6 °F62 %30.22 in10.0 miNorth (10°)3.5 mphClear
8:15 AM46.4 °F35.6 °F66 %30.23 in10.0 miSSW (210°)3.5 mphClear
8:35 AM44.6 °F35.6 °F71 %30.24 in10.0 miSouth (180°)3.5 mphClear
9:15 AM46.4 °F35.6 °F66 %30.25 in10.0 miCalmClear
9:35 AM50.0 °F35.6 °F58 %30.24 in10.0 miNW (320°)5.8 mphClear
9:55 AM57.2 °F32.0 °F38 %30.23 in10.0 miNorth (10°)19.6 mph24.2 mphClear
10:15 AM57.2 °F32.0 °F38 %30.23 in10.0 miNorth (10°)18.4 mphClear
10:35 AM59.0 °F32.0 °F36 %30.23 in10.0 miNorth (10°)17.3 mph23.0 mphClear
10:55 AM59.0 °F32.0 °F36 %30.23 in10.0 miNorth (10°)18.4 mphClear
11:15 AM60.8 °F32.0 °F34 %30.23 in10.0 miNorth (360°)21.9 mph28.8 mphClear
11:35 AM62.6 °F32.0 °F32 %30.22 in10.0 miNorth (360°)25.3 mph31.1 mphClear
11:55 AM62.6 °F32.0 °F32 %30.21 in10.0 miNorth (360°)24.2 mphClear
12:15 PM64.4 °F32.0 °F30 %30.21 in10.0 miNorth (350°)24.2 mph29.9 mphClear
12:35 PM64.4 °F32.0 °F30 %30.20 in10.0 miNorth (360°)23.0 mphClear
12:55 PM64.4 °F32.0 °F30 %30.20 in10.0 miNorth (360°)18.4 mph26.5 mphClear
1:15 PM66.2 °F32.0 °F28 %30.19 in10.0 miNorth (350°)17.3 mph26.5 mphClear
1:35 PM66.2 °F32.0 °F28 %30.19 in10.0 miNorth (350°)17.3 mphClear
1:55 PM68.0 °F32.0 °F26 %30.18 in10.0 miNorth (360°)17.3 mph23.0 mphClear
2:15 PM68.0 °F32.0 °F26 %30.17 in10.0 miNorth (360°)19.6 mphClear
2:35 PM68.0 °F32.0 °F26 %30.17 in10.0 miNorth (360°)16.1 mph21.9 mphClear
2:55 PM68.0 °F32.0 °F26 %30.17 in10.0 miNorth (360°)15.0 mph23.0 mphClear
3:15 PM69.8 °F32.0 °F25 %30.16 in10.0 miNorth (360°)18.4 mph21.9 mphClear
3:35 PM69.8 °F32.0 °F25 %30.15 in10.0 miNorth (360°)18.4 mph25.3 mphClear
3:55 PM69.8 °F32.0 °F25 %30.15 in10.0 miNorth (360°)18.4 mph23.0 mphClear
4:15 PM69.8 °F32.0 °F25 %30.15 in10.0 miNorth (360°)16.1 mphClear
4:35 PM69.8 °F32.0 °F25 %30.14 in10.0 miNorth (350°)20.7 mphClear
4:55 PM68.0 °F32.0 °F26 %30.15 in10.0 miNorth (360°)16.1 mphClear
5:15 PM68.0 °F32.0 °F26 %30.14 in10.0 miNorth (360°)16.1 mphClear
5:35 PM68.0 °F32.0 °F26 %30.14 in10.0 miNorth (360°)12.7 mph17.3 mphClear
5:55 PM66.2 °F32.0 °F28 %30.15 in10.0 miNorth (10°)13.8 mphClear
6:15 PM66.2 °F32.0 °F28 %30.16 in10.0 miNNE (30°)10.4 mphClear
6:35 PM66.2 °F32.0 °F28 %30.17 in10.0 miNNE (30°)10.4 mphClear
6:55 PM64.4 °F32.0 °F30 %30.18 in10.0 miNE (40°)10.4 mphClear
7:15 PM62.6 °F32.0 °F32 %30.18 in10.0 miNorth (350°)3.5 mphClear
7:35 PM62.6 °F33.8 °F34 %30.19 in10.0 miWSW (250°)3.5 mphClear
7:55 PM62.6 °F33.8 °F34 %30.20 in10.0 miNNE (20°)5.8 mphClear
8:15 PM59.0 °F35.6 °F42 %30.21 in10.0 miCalmClear
8:35 PM57.2 °F35.6 °F44 %30.21 in10.0 miCalmClear
8:55 PM57.2 °F35.6 °F44 %30.22 in10.0 miEast (80°)3.5 mphClear
9:15 PM57.2 °F35.6 °F44 %30.22 in10.0 miNorth (10°)3.5 mphClear
9:35 PM57.2 °F33.8 °F41 %30.22 in10.0 miNNE (30°)4.6 mphClear
9:55 PM57.2 °F35.6 °F44 %30.23 in10.0 miCalmClear
10:15 PM57.2 °F35.6 °F44 %30.23 in10.0 miCalmClear
10:35 PM55.4 °F35.6 °F47 %30.24 in10.0 miNNE (30°)4.6 mphClear
10:55 PM57.2 °F35.6 °F44 %30.24 in10.0 miNNE (20°)5.8 mphClear
11:15 PM55.4 °F35.6 °F47 %30.24 in10.0 miNorth (10°)3.5 mphClear
11:35 PM55.4 °F35.6 °F47 %30.24 in10.0 miNorth (10°)5.8 mphClear
11:55 PM55.4 °F37.4 °F51 %30.24 in10.0 miNorth (360°)4.6 mphClear
Hourly data recorded from KIFP, located miles away from Bullhead City, Arizona







STORIES FROM OUR PARTNERS